Regional Weather Roundup
Issued by NWS

Home | Current Version | Previous Version | Text Only | Print | Product List | Glossary Off
Versions: 1 2 3 4 5 6 7 8 9 10 11 12 13 14 15 16 17 18 19 20 21 22 23 24 25 26 27 28 29 30 31 32 33 34 35 36 37 38 39 40 41 42 43 44 45 46 47 48 49 50

000
ASUS43 KOAX 300610
RWRNE

WEATHER ROUNDUP FOR NEBRASKA
NATIONAL WEATHER SERVICE OMAHA NE
100 AM CDT SAT MAY 30 2015

NOTES: SATELLITE DATA IS BEING USED TO AUGMENT CLOUD COVER ABOVE
       12000 FEET.
       "FAIR" INDICATES FEW OR NO CLOUDS BELOW 12,000 FEET WITH NO
       SIGNIFICANT WEATHER AND/OR OBSTRUCTIONS TO VISIBILITY.

  * THESE STATIONS DO NOT REPORT WEATHER SUCH AS RAIN...SNOW OR FOG.

NEZ001>004-019>022-054>056-300700-
NEBRASKA PANHANDLE

CITY           SKY/WX    TMP DP  RH WIND       PRES   REMARKS
SCOTTSBLUFF    CLOUDY    48  46  93 NE7       30.30S
6HR MIN TEMP:  45; 6HR MAX TEMP:  53; 6HR PCP: TRACE;

ALLIANCE       CLEAR     41  40  96 NW3       30.29S FOG
6HR MIN TEMP:  39; 6HR MAX TEMP:  48;

CHADRON        CLEAR     43  41  93 S3        30.30S
6HR MIN TEMP:  42; 6HR MAX TEMP:  50;

KIMBALL          N/A    N/A N/A N/A MISG        N/A
SIDNEY         CLOUDY    46  43  89 NE9       30.31R
6HR MIN TEMP:  46; 6HR MAX TEMP:  50;

$$

NEZ057>060-069>072-079>082-300700-
SOUTHWEST NEBRASKA

CITY           SKY/WX    TMP DP  RH WIND       PRES   REMARKS
NORTH PLATTE   PTCLDY    46  42  86 NW6       30.28S
6HR MIN TEMP:  46; 6HR MAX TEMP:  53;

IMPERIAL       CLOUDY    49  43  80 N14       30.29R
6HR MIN TEMP:  49; 6HR MAX TEMP:  56;

LEXINGTON      MOCLDY    50  46  85 N15       30.24S
MCCOOK         CLOUDY    51  46  83 N17       30.27R
6HR MIN TEMP:  51; 6HR MAX TEMP:  61;

OGALLALA       CLEAR     44  42  91 N5        30.29F
$$

NEZ005>010-023>029-035>040-094-300700-
NORTH CENTRAL NEBRASKA

CITY           SKY/WX    TMP DP  RH WIND       PRES   REMARKS
VALENTINE      MOCLDY    43  39  86 NW7       30.28S
6HR MIN TEMP:  43; 6HR MAX TEMP:  49;

AINSWORTH      CLEAR     42  40  91 N6        30.27R
BROKEN BOW     CLOUDY    49  42  77 N15       30.24R
6HR MIN TEMP:  49; 6HR MAX TEMP:  54; 6HR PCP: TRACE;

O`NEILL        CLOUDY    48  45  90 NW12      30.24R
ORD            CLOUDY    49  42  77 N17       30.21R
6HR MIN TEMP:  49; 6HR MAX TEMP:  53; 6HR PCP:  0.03;

THEDFORD       PTCLDY    42  41  96 CALM      30.29R
$$

NEZ041-046>049-061>064-073>077-083>087-300700-
SOUTH CENTRAL NEBRASKA

CITY           SKY/WX    TMP DP  RH WIND       PRES   REMARKS
GRAND ISLAND   LGT RAIN  49  46  90 N21       30.20R
6HR MIN TEMP:  49; 6HR MAX TEMP:  59; 6HR PCP: TRACE;

AURORA         CLOUDY    51  47  85 N23G29    30.17S
HASTINGS       CLOUDY    52  45  77 N20G31    30.18S
6HR MIN TEMP:  52; 6HR MAX TEMP:  61;

HEBRON         CLOUDY    53  46  77 N18G28    30.13S
HOLDREGE       CLOUDY    50  46  85 N17G25    30.22R
KEARNEY *      CLOUDY    52  43  71 N21G29    30.21S
YORK           LGT RAIN  50  48  93 N13       30.16S
$$

NEZ011>018-030>034-042>045-300700-
NORTHEAST NEBRASKA

CITY           SKY/WX    TMP DP  RH WIND       PRES   REMARKS
NORFOLK        CLOUDY    50  45  83 N18G25    30.16S
6HR MIN TEMP:  50; 6HR MAX TEMP:  55; 6HR PCP:  0.01;

ALBION         CLOUDY    49  42  77 N14G25    30.19R
BLAIR          CLOUDY    52  47  83 N20G28    30.09S
COLUMBUS *     CLOUDY    52  41  66 N14G20    30.17R
FREMONT        CLOUDY    54  47  75 N9G20     30.13R
TEKAMAH        LGT RAIN  53  49  86 N21       30.11R FOG
6HR MIN TEMP:  53; 6HR MAX TEMP:  69; 6HR PCP: TRACE;

WAYNE          CLOUDY    50  45  82 N13G18    30.16R
$$

NEZ050>053-065>068-078-088>093-300700-
SOUTHEAST NEBRASKA

CITY           SKY/WX    TMP DP  RH WIND       PRES   REMARKS
LINCOLN        CLOUDY    55  49  80 N22       30.13R
6HR MIN TEMP:  55; 6HR MAX TEMP:  75;

OMAHA EPPLEY   CLOUDY    54  50  86 N20       30.07R
6HR MIN TEMP:  54; 6HR MAX TEMP:  77; 6HR PCP:  0.01;

BEATRICE       CLOUDY    56  51  85 N18G24    30.09F
FALLS CITY     CLOUDY    60  59  96 NW17G23   30.03R
6HR MIN TEMP:  60; 6HR MAX TEMP:  74; 6HR PCP:  0.05;

NEBRASKA CITY  CLOUDY    56  55  97 N15       30.07R
PLATTSMOUTH    CLOUDY    54  51  89 N9G16     30.07R
$$

NEZ044-045-051>053-067-300700-
OMAHA AREA

CITY           SKY/WX    TMP DP  RH WIND       PRES   REMARKS
OMAHA EPPLEY   CLOUDY    54  50  86 N20       30.07R
6HR MIN TEMP:  54; 6HR MAX TEMP:  77; 6HR PCP:  0.01;

BLAIR          CLOUDY    52  47  83 N20G28    30.09S
FREMONT        CLOUDY    54  47  75 N9G20     30.13R
MILLARD        CLOUDY    54  50  86 NW10      30.09S
OFFUTT AFB     CLOUDY    55  51  87 N12G20    30.07R
PLATTSMOUTH    CLOUDY    54  51  89 N9G16     30.07R
WAHOO          CLOUDY    54  50  87 N15       30.12R
$$



USA.gov is the U.S. government's official web portal to all federal, state and local government web resources and services.